User: anonymous   Login
Location: Unspecified
(0.0000°N, 0.0000°E)
Time: 01:02:48
(UTC+01:00)
Language:

CZ-4B R/B - Orbit

View from above orbital plane
View from above orbital plane
View from above satellite
View from above satellite

Ground track
Ground track

The orbit data is extracted from the following two-line orbital elements,

1 33410U 08053C   18021.46983771  .00001076  00000-0  82475-4 0  9998
2 33410  97.7593 355.5037 0119984 177.8949 182.2805 14.98541349503471
Epoch (UTC): 21 January 2018 11:16:33
Eccentricity: 0.0119984
inclination: 97.7593°
perigee height: 488 km
apogee height: 655 km
right ascension of ascending node: 355.5037°
argument of perigee: 177.8949°
revolutions per day: 14.98541349
mean anomaly at epoch: 182.2805°
orbit number at epoch: 50347

The dashed part of the orbit path shows where the satellite is in the earth's shadow,  

DLR